Watertown, NY

4:33 AM EST on November 20, 2019 (GMT -0500)
Watertown International

Weather History for KART - September, 2019

Change the Weather History Date:

Tuesday, September 24, 2019

  Actual Average Record
Temperature  
Mean Temperature 55 °F 56 °F  
Max Temperature 66 °F 67 °F 88 °F (1970)
Min Temperature 44 °F 46 °F 26 °F (1997)
Degree Days  
Heating Degree Days 10 9  
Month to date heating degree days 131 138  
Since 1 July heating degree days 160 210  
Cooling Degree Days 0 1  
Month to date cooling degree days 19 34  
Year to date cooling degree days 340 358  
Growing Degree Days 5 (Base 50)    
Moisture  
Dew Point 53 °F    
Average Humidity 78    
Maximum Humidity 100    
Minimum Humidity 56    
Precipitation  
Precipitation T in 0.14 in 1.79 in (2001)
Month to date precipitation 2.84 2.90  
Year to date precipitation 30.93 24.70  
Sea Level Pressure  
Sea Level Pressure 29.80 in    
Wind  
Wind Speed 6 mph (NW)    
Max Wind Speed 16 mph    
Max Gust Speed 21 mph    
Visibility 10 miles    
Events Rain    
T = Trace of Precipitation, MM = Missing Value Source: NWS Daily Summary

Daily Weather History Graph

Daily Weather History Graph

Search for Another Location

Airport or City:

Astronomy

Sep. 24, 2019 Rise Set
Actual Time 6:53 AM EDT 6:58 PM EDT
Civil Twilight 6:24 AM EDT 7:26 PM EDT
Nautical Twilight 5:50 AM EDT 8:00 PM EDT
Astronomical Twilight 5:16 AM EDT 8:34 PM EDT
Moon 1:23 AM EDT (9/24) 4:53 PM EDT (9/24)
Length of Visible Light 13h 02m
Length of Day
12h 04m
Waning Crescent, 23% of the Moon is Illuminated
Sep 24
Waning Crescent
Sep 28
New
Oct 5
First Quarter
Oct 13
Full
Oct 21
Last Quarter

Hourly Weather History & Observations

Time (EDT) Temp. Dew Point Humidity Pressure Visibility Wind Dir Wind Speed Gust Speed Precip Events Conditions
12:56 AM 61.0 °F 55.9 °F 83% 29.73 in 10.0 mi WSW 5.8 mph - N/A   Clear
1:56 AM 61.0 °F 55.9 °F 83% 29.73 in 10.0 mi West 8.1 mph - N/A   Overcast
2:56 AM 61.0 °F 55.9 °F 83% 29.71 in 10.0 mi West 8.1 mph - N/A   Mostly Cloudy
3:56 AM 61.0 °F 55.9 °F 83% 29.71 in 10.0 mi West 8.1 mph - N/A   Partly Cloudy
4:08 AM 61.0 °F 55.9 °F 83% 29.72 in 10.0 mi WNW 5.8 mph - N/A   Mostly Cloudy
4:21 AM 60.1 °F 55.9 °F 86% 29.72 in 10.0 mi West 4.6 mph - N/A   Mostly Cloudy
4:56 AM 61.0 °F 55.9 °F 83% 29.72 in 10.0 mi West 5.8 mph - N/A   Overcast
5:09 AM 61.0 °F 55.9 °F 83% 29.73 in 10.0 mi West 5.8 mph - N/A   Overcast
5:56 AM 61.0 °F 55.9 °F 83% 29.73 in 10.0 mi NW 10.4 mph - N/A   Overcast
6:03 AM 61.0 °F 55.9 °F 83% 29.74 in 10.0 mi WNW 8.1 mph - N/A   Overcast
6:27 AM 60.1 °F 55.9 °F 86% 29.75 in 10.0 mi NW 8.1 mph - N/A   Overcast
6:56 AM 60.1 °F 55.9 °F 86% 29.75 in 10.0 mi NW 6.9 mph - N/A   Overcast
7:46 AM 57.9 °F 55.0 °F 90% 29.78 in 10.0 mi NE 4.6 mph - 0.00 in Rain Light Rain
7:56 AM 57.9 °F 55.0 °F 90% 29.78 in 10.0 mi NE 3.5 mph - 0.00 in   Overcast
8:37 AM 59.0 °F 55.9 °F 90% 29.80 in 10.0 mi Calm Calm - N/A   Mostly Cloudy
8:56 AM 60.1 °F 55.9 °F 86% 29.80 in 10.0 mi Calm Calm - N/A   Overcast
9:56 AM 59.0 °F 52.0 °F 78% 29.83 in 10.0 mi NNW 13.8 mph - N/A   Overcast
10:56 AM 61.0 °F 54.0 °F 78% 29.83 in 10.0 mi NW 9.2 mph - N/A   Scattered Clouds
11:21 AM 62.1 °F 52.0 °F 70% 29.83 in 10.0 mi NW 13.8 mph - N/A   Mostly Cloudy
11:30 AM 62.1 °F 51.1 °F 67% 29.84 in 10.0 mi NW 11.5 mph - N/A   Scattered Clouds
11:56 AM 63.0 °F 51.1 °F 65% 29.83 in 10.0 mi NNW 10.4 mph - N/A   Partly Cloudy
12:41 PM 63.0 °F 50.0 °F 63% 29.84 in 10.0 mi NW 11.5 mph - N/A   Mostly Cloudy
12:53 PM 64.4 °F 50.0 °F 59% 29.84 in 10.0 mi NW 9.2 mph - N/A   Overcast
12:56 PM 63.0 °F 48.9 °F 60% 29.83 in 10.0 mi WNW 11.5 mph - N/A   Overcast
1:56 PM 63.0 °F 48.9 °F 60% 29.83 in 10.0 mi West 8.1 mph - N/A   Overcast
2:56 PM 63.0 °F 48.9 °F 60% 29.83 in 10.0 mi West 5.8 mph - N/A   Overcast
3:56 PM 64.0 °F 50.0 °F 60% 29.83 in 10.0 mi WSW 4.6 mph - N/A   Mostly Cloudy
4:56 PM 64.9 °F 48.0 °F 54% 29.83 in 10.0 mi NNW 4.6 mph - N/A   Mostly Cloudy
5:56 PM 63.0 °F 50.0 °F 63% 29.84 in 10.0 mi NNW 4.6 mph - N/A   Overcast
6:56 PM 59.0 °F 51.1 °F 75% 29.86 in 10.0 mi NE 3.5 mph - N/A   Overcast
7:56 PM 55.9 °F 52.0 °F 87% 29.87 in 10.0 mi Calm Calm - N/A   Mostly Cloudy
8:56 PM 51.1 °F 48.9 °F 92% 29.88 in 10.0 mi ENE 4.6 mph - N/A   Partly Cloudy
9:56 PM 48.9 °F 48.0 °F 97% 29.88 in 10.0 mi Calm Calm - N/A   Clear
10:56 PM 46.9 °F 46.0 °F 97% 29.88 in 9.0 mi East 3.5 mph - N/A   Clear
11:56 PM 46.9 °F 46.0 °F 97% 29.86 in 10.0 mi Calm Calm - N/A   Clear